Location: Asbacherhof
(48.8543°N, 10.7903°E)
Time: 23:43:43
(UTC+00:00)

Cosmos 2251 Rocket - Pass Details

Date: 26 May 2022
Orbit: 764 x 791 km, 74.0° (Epoch: 26 June)

Event Time Altitude Azimuth Distance (km) Brightness Sun altitude
Rises 01:56:40 0° 335° (NNW) 3,249 7.1 -11.2°
Reaches altitude 10° 01:59:03 10° 335° (NNW) 2,321 6.3 -11.0°
Maximum altitude 02:04:19 78° 250° (WSW) 794 3.5 -10.4°
Drops below altitude 10° 02:09:35 10° 164° (SSE) 2,320 5.7 -9.8°
Sets 02:11:57 0° 163° (SSE) 3,248 6.4 -9.6°
